Kecskemet, Hungary

7:01 AM CEST on April 28, 2017 (GMT +0200)
Kecskemet

Weather History for LHKE - November, 2012

Change the Weather History Date:

Thursday, November 22, 2012

  Actual Average (LHBP) Record (LHBP)
Temperature  
Mean Temperature 44 °F -  
Max Temperature 48 °F 43 °F 55 °F (2000)
Min Temperature 41 °F 32 °F 23 °F (2005)
Degree Days  
Heating Degree Days 20    
Moisture  
Dew Point 41 °F    
Average Humidity 89    
Maximum Humidity 100    
Minimum Humidity 71    
Precipitation  
Precipitation 0.00 in - - ()
Sea Level Pressure  
Sea Level Pressure 30.28 in    
Wind  
Wind Speed 3 mph ()    
Max Wind Speed 9 mph    
Max Gust Speed -    
Visibility 3.2 miles    
Events      
Averages and records for this station are not official NWS values.
T = Trace of Precipitation, MM = Missing Value Source: Averaged Metar Reports

Daily Weather History Graph

Daily Weather History Graph

Search for Another Location

Airport or City:

Trip Planner

Search our weather history database for the weather conditions in past years. The results will help you decide how hot, cold, wet, or windy it might be!

Date:

Astronomy

Nov. 22, 2012 Rise Set
Actual Time 6:54 AM CET 3:59 PM CET
Civil Twilight 6:20 AM CET 4:33 PM CET
Nautical Twilight 5:43 AM CET 5:10 PM CET
Astronomical Twilight 5:06 AM CET 5:47 PM CET
Moon 12:55 PM CET (11/22) 12:35 AM CET (11/22)
Length of Visible Light 10h 13m
Length of Day
9h 05m
Waxing Gibbous, 69% of the Moon is Illuminated
Nov 22
Waxing Gibbous
Nov 28
Full
Dec 6
Last Quarter
Dec 13
New
Dec 20
First Quarter

Hourly Weather History & Observations

Time (CET) Temp. Windchill Dew Point Humidity Pressure Visibility Wind Dir Wind Speed Gust Speed Precip Events Conditions
12:15 AM 41.0 °F - 41.0 °F 100% 30.24 in 1.2 mi East 2.2 mph - N/A   Mostly Cloudy
12:45 AM 41.0 °F - 41.0 °F 100% 30.24 in 1.2 mi East 2.2 mph - N/A   Mostly Cloudy
1:15 AM 41.0 °F - 41.0 °F 100% 30.24 in 1.2 mi East 2.2 mph - N/A   Mostly Cloudy
1:45 AM 41.0 °F - 41.0 °F 100% 30.24 in 1.2 mi East 2.2 mph - N/A   Mostly Cloudy
2:15 AM 41.0 °F - 41.0 °F 100% 30.24 in 1.2 mi East 2.2 mph - N/A   Mostly Cloudy
2:45 AM 41.0 °F - 41.0 °F 100% 30.24 in 1.2 mi East 2.2 mph - N/A   Mostly Cloudy
3:15 AM 41.0 °F - 41.0 °F 100% 30.24 in 1.2 mi ESE 2.2 mph - N/A   Mostly Cloudy
3:45 AM 41.0 °F - 41.0 °F 100% 30.24 in 1.2 mi ESE 2.2 mph - N/A   Mostly Cloudy
4:15 AM 41.0 °F - 41.0 °F 100% 30.24 in 1.2 mi SE 2.2 mph - N/A   Mostly Cloudy
4:45 AM 42.8 °F - 41.0 °F 93% 30.24 in 1.2 mi ESE 2.2 mph - N/A   Mostly Cloudy
5:15 AM 42.8 °F - 41.0 °F 93% 30.27 in 1.9 mi SE 2.2 mph - N/A   Mostly Cloudy
5:45 AM - - - N/A% - 3.1 mi Variable 4.5 mph - N/A   Mostly Cloudy
6:15 AM 41.0 °F - 39.2 °F 93% 30.27 in 2.5 mi Calm Calm - N/A   Mostly Cloudy
6:45 AM 41.0 °F - 39.2 °F 93% 30.27 in 1.9 mi ESE 2.2 mph - N/A   Mostly Cloudy
7:15 AM 42.8 °F - 39.2 °F 87% 30.30 in 2.5 mi SSE 2.2 mph - N/A   Mostly Cloudy
7:45 AM 42.8 °F 40.2 °F 39.2 °F 87% 30.30 in 2.8 mi SSE 4.5 mph - N/A   Mostly Cloudy
8:02 AM 42.8 °F 38.7 °F 39.2 °F 87% 30.30 in 3.1 mi South 6.7 mph - N/A   Mostly Cloudy
8:15 AM 42.8 °F 38.7 °F 39.2 °F 87% 30.30 in 3.7 mi South 6.7 mph - N/A   Mostly Cloudy
8:45 AM - - - N/A% - 5.0 mi Variable 4.5 mph - N/A   Mostly Cloudy
9:15 AM 44.6 °F 39.8 °F 39.2 °F 81% 30.30 in 4.3 mi South 8.9 mph - N/A   Overcast
9:45 AM 44.6 °F 40.8 °F 41.0 °F 87% 30.30 in 3.7 mi South 6.7 mph - N/A   Mostly Cloudy
10:15 AM 46.4 °F 43.0 °F 39.2 °F 76% 30.30 in 4.3 mi SSE 6.7 mph - N/A   Overcast
10:45 AM 46.4 °F 43.0 °F 39.2 °F 76% 30.30 in 5.0 mi South 6.7 mph - N/A   Overcast
11:15 AM 46.4 °F 42.0 °F 39.2 °F 76% 30.30 in 5.0 mi South 8.9 mph - N/A   Overcast
11:45 AM - - - N/A% - 5.0 mi Variable 4.5 mph - N/A   Mostly Cloudy
12:15 PM 48.2 °F - 41.0 °F 76% 30.30 in 5.6 mi South 6.7 mph - N/A   Overcast
12:45 PM 48.2 °F - 39.2 °F 71% 30.30 in 6.2 mi South 6.7 mph - N/A   Overcast
1:15 PM 48.2 °F - 39.2 °F 71% 30.30 in 6.2 mi SSE 6.7 mph - N/A   Overcast
1:45 PM 48.2 °F - 41.0 °F 76% 30.30 in 6.2 mi SSE 6.7 mph - N/A   Overcast
2:15 PM 48.2 °F - 41.0 °F 76% 30.30 in 5.0 mi SSE 4.5 mph - N/A   Overcast
2:45 PM - - - N/A% - 5.0 mi Variable 4.5 mph - N/A   Mostly Cloudy
3:15 PM 48.2 °F - 41.0 °F 76% 30.30 in 5.0 mi ESE 6.7 mph - N/A   Overcast
3:45 PM 46.4 °F 43.0 °F 41.0 °F 81% 30.30 in 4.3 mi ESE 6.7 mph - N/A   Overcast
4:15 PM 46.4 °F 44.4 °F 41.0 °F 81% 30.30 in 3.7 mi East 4.5 mph - N/A   Overcast
4:45 PM 46.4 °F 44.4 °F 42.8 °F 87% 30.30 in 3.7 mi ESE 4.5 mph - N/A   Overcast
5:15 PM 46.4 °F 44.4 °F 42.8 °F 87% 30.30 in 3.7 mi ESE 4.5 mph - N/A   Overcast
5:45 PM - - - N/A% - 3.7 mi Variable 4.5 mph - N/A   Overcast
6:15 PM 46.4 °F 44.4 °F 42.8 °F 87% 30.30 in 3.7 mi East 4.5 mph - N/A   Overcast
6:45 PM 46.4 °F 44.4 °F 42.8 °F 87% 30.30 in 3.7 mi East 4.5 mph - N/A   Overcast
7:15 PM 46.4 °F 44.4 °F 42.8 °F 87% 30.30 in 3.7 mi East 4.5 mph - N/A   Overcast
7:30 PM 46.4 °F 44.4 °F 42.8 °F 87% 30.30 in 3.1 mi ESE 4.5 mph - N/A   Overcast
7:45 PM 46.4 °F 44.4 °F 42.8 °F 87% 30.30 in 3.1 mi East 4.5 mph - N/A   Overcast
8:15 PM 46.4 °F - 42.8 °F 87% 30.30 in 3.1 mi East 2.2 mph - N/A   Overcast
8:45 PM - - - N/A% - 2.5 mi Variable 4.5 mph - N/A   Overcast
9:15 PM 44.6 °F - 42.8 °F 93% 30.30 in 2.8 mi ESE 2.2 mph - N/A   Overcast
9:45 PM 44.6 °F - 42.8 °F 93% 30.30 in 2.5 mi East 2.2 mph - N/A   Overcast
10:15 PM 44.6 °F - 44.6 °F 100% 30.30 in 2.2 mi East 2.2 mph - N/A   Overcast
10:45 PM 44.6 °F - 44.6 °F 100% 30.30 in 2.2 mi East 2.2 mph - N/A   Overcast
11:15 PM 44.6 °F 42.3 °F 44.6 °F 100% 30.30 in 2.2 mi ESE 4.5 mph - N/A   Overcast
11:35 PM 44.6 °F - 44.6 °F 100% 30.30 in 1.9 mi East 2.2 mph - N/A   Overcast
11:45 PM - - - N/A% - 3.1 mi North - - N/A   Overcast